EN

Hourly Weather Maktaly

Today, 23 November, Monday

Time Temperature Precipitation Wind Pressure Humidity
00:00 -7°C° 0 mm 1 mps 727 mmHg 80%
01:00 -7°C° 0 mm 1 mps 727 mmHg 80%
02:00 -8°C° 0 mm 2 mps 727 mmHg 79%
03:00 -8°C° 0 mm 2 mps 727 mmHg 76%
04:00 -8°C° 0 mm 2 mps 727 mmHg 73%
05:00 -9°C° 0 mm 2 mps 727 mmHg 72%
06:00 -8°C° 0 mm 2 mps 727 mmHg 70%
07:00 -8°C° 0 mm 2 mps 727 mmHg 67%
08:00 -8°C° 0 mm 2 mps 727 mmHg 64%
09:00 -6°C° 0 mm 2 mps 727 mmHg 60%
10:00 -2°C° 0 mm 1 mps 727 mmHg 56%
11:00 0°C° 0 mm 1 mps 727 mmHg 52%
12:00 +1°C° 0 mm 1 mps 727 mmHg 52%
13:00 +1°C° 0 mm 1 mps 726 mmHg 53%
14:00 +2°C° 0 mm 1 mps 726 mmHg 53%
15:00 0°C° 0 mm 1 mps 726 mmHg 59%
16:00 -2°C° 0 mm 1 mps 726 mmHg 65%
17:00 -3°C° 0 mm 1 mps 726 mmHg 71%
18:00 -4°C° 0 mm 1 mps 726 mmHg 69%
19:00 -4°C° 0 mm 1 mps 726 mmHg 68%
20:00 -4°C° 0 mm 1 mps 725 mmHg 67%
21:00 -4°C° 0 mm 1 mps 725 mmHg 64%
22:00 -4°C° 0 mm 1 mps 725 mmHg 61%
23:00 -6°C° 0 mm 1 mps 725 mmHg 59%

Tomorrow, 24 November, Tuesday

Time Temperature Precipitation Wind Pressure Humidity
00:00 -6°C° 0 mm 1 mps 725 mmHg 57%
01:00 -6°C° 0 mm 1 mps 724 mmHg 55%
02:00 -6°C° 0 mm 1 mps 724 mmHg 53%
03:00 -6°C° 0 mm 1 mps 724 mmHg 51%
04:00 -4°C° 0 mm 1 mps 724 mmHg 50%
05:00 -4°C° 0 mm 1 mps 724 mmHg 48%
06:00 -4°C° 0 mm 1 mps 724 mmHg 48%
07:00 -4°C° 0 mm 1 mps 724 mmHg 47%
08:00 -4°C° 0 mm 1 mps 724 mmHg 47%
09:00 -2°C° 0 mm 1 mps 724 mmHg 45%
10:00 -1°C° 0 mm 0 mps 724 mmHg 43%
11:00 +1°C° 0 mm 0 mps 724 mmHg 41%
12:00 +1°C° 0 mm 0 mps 724 mmHg 42%
13:00 +2°C° 0 mm 0 mps 723 mmHg 43%
14:00 +3°C° 0 mm 1 mps 723 mmHg 44%
15:00 +1°C° 0 mm 0 mps 723 mmHg 48%
16:00 -1°C° 0 mm 0 mps 723 mmHg 52%
17:00 -2°C° 0 mm 0 mps 723 mmHg 56%
18:00 -2°C° 0 mm 0 mps 723 mmHg 56%
19:00 -3°C° 0 mm 0 mps 723 mmHg 56%
20:00 -3°C° 0 mm 0 mps 723 mmHg 56%
21:00 -3°C° 0 mm 0 mps 723 mmHg 56%
22:00 -2°C° 0 mm 1 mps 723 mmHg 56%
23:00 -1°C° 0 mm 1 mps 723 mmHg 55%

Day after tomorrow, 25 November, Wednesday

Time Temperature Precipitation Wind Pressure Humidity
00:00 -1°C° 0 mm 1 mps 723 mmHg 55%
01:00 -1°C° 0 mm 1 mps 723 mmHg 55%
02:00 -1°C° 0 mm 1 mps 723 mmHg 55%
03:00 -1°C° 0 mm 1 mps 723 mmHg 54%
04:00 -1°C° 0 mm 1 mps 723 mmHg 54%
05:00 -1°C° 0 mm 1 mps 723 mmHg 54%
06:00 -1°C° 0 mm 1 mps 723 mmHg 54%
07:00 -1°C° 0 mm 1 mps 724 mmHg 53%
08:00 -1°C° 0 mm 1 mps 724 mmHg 53%
09:00 +1°C° 0 mm 1 mps 724 mmHg 50%
10:00 +1°C° 0 mm 0 mps 724 mmHg 47%
11:00 +3°C° 0 mm 0 mps 725 mmHg 43%
12:00 +3°C° 0 mm 0 mps 725 mmHg 43%
13:00 +5°C° 0 mm 1 mps 725 mmHg 42%
14:00 +5°C° 0 mm 1 mps 725 mmHg 42%
15:00 +4°C° 0 mm 1 mps 725 mmHg 46%
16:00 +3°C° 0 mm 1 mps 725 mmHg 50%
17:00 +1°C° 0 mm 0 mps 725 mmHg 55%
18:00 +2°C° 0 mm 1 mps 725 mmHg 59%
19:00 +2°C° 0 mm 1 mps 725 mmHg 64%
20:00 +1°C° 0 mm 1 mps 726 mmHg 69%
21:00 +1°C° 0 mm 1 mps 726 mmHg 71%
22:00 0°C° 0 mm 0 mps 726 mmHg 73%
23:00 0°C° 0 mm 0 mps 726 mmHg 75%

26 November, Thursday

Time Temperature Precipitation Wind Pressure Humidity
00:00 0°C° 0 mm 1 mps 726 mmHg 76%
01:00 0°C° 0 mm 1 mps 726 mmHg 77%
02:00 0°C° 0 mm 1 mps 726 mmHg 78%
03:00 0°C° 0 mm 1 mps 726 mmHg 77%
04:00 -2°C° 0 mm 2 mps 726 mmHg 77%
05:00 -2°C° 0 mm 2 mps 726 mmHg 76%
06:00 -2°C° 0 mm 2 mps 726 mmHg 73%
07:00 -2°C° 0 mm 2 mps 726 mmHg 69%
08:00 -1°C° 0 mm 3 mps 726 mmHg 66%
09:00 +1°C° 0 mm 3 mps 726 mmHg 60%
10:00 +3°C° 0 mm 3 mps 726 mmHg 54%
11:00 +5°C° 0 mm 3 mps 726 mmHg 48%
12:00 +7°C° 0 mm 3 mps 726 mmHg 47%
13:00 +7°C° 0 mm 2 mps 726 mmHg 45%
14:00 +8°C° 0 mm 2 mps 725 mmHg 44%
15:00 +7°C° 0 mm 2 mps 725 mmHg 47%
16:00 +5°C° 0 mm 2 mps 725 mmHg 49%
17:00 +4°C° 0 mm 2 mps 724 mmHg 52%
18:00 +4°C° 0 mm 2 mps 724 mmHg 50%
19:00 +4°C° 0 mm 2 mps 724 mmHg 49%
20:00 +3°C° 0 mm 3 mps 724 mmHg 47%
21:00 +4°C° 0 mm 2 mps 724 mmHg 46%
22:00 +4°C° 0 mm 2 mps 724 mmHg 44%
23:00 +4°C° 0 mm 2 mps 723 mmHg 42%

27 November, Friday

Time Temperature Precipitation Wind Pressure Humidity
00:00 +4°C° 0 mm 2 mps 723 mmHg 41%
01:00 +4°C° 0 mm 2 mps 723 mmHg 39%
02:00 +4°C° 0 mm 2 mps 723 mmHg 38%
03:00 +4°C° 0 mm 2 mps 722 mmHg 37%
04:00 +5°C° 0 mm 2 mps 722 mmHg 36%
05:00 +4°C° 0 mm 3 mps 722 mmHg 35%
06:00 +5°C° 0 mm 2 mps 722 mmHg 35%
07:00 +5°C° 0 mm 2 mps 722 mmHg 35%
08:00 +5°C° 0 mm 2 mps 721 mmHg 36%
09:00 +8°C° 0 mm 1 mps 721 mmHg 36%
10:00 +9°C° 0 mm 1 mps 721 mmHg 35%
11:00 +10°C° 0 mm 1 mps 721 mmHg 35%
12:00 +11°C° 0 mm 1 mps 721 mmHg 36%
13:00 +12°C° 0 mm 1 mps 721 mmHg 37%
14:00 +12°C° 0 mm 1 mps 721 mmHg 38%
15:00 +12°C° 0 mm 1 mps 721 mmHg 39%
16:00 +11°C° 0 mm 1 mps 721 mmHg 40%
17:00 +10°C° 0 mm 1 mps 721 mmHg 40%
18:00 +10°C° 0 mm 1 mps 721 mmHg 40%
19:00 +9°C° 0 mm 1 mps 721 mmHg 39%
20:00 +9°C° 0 mm 1 mps 721 mmHg 39%
21:00 +8°C° 0 mm 2 mps 721 mmHg 38%
22:00 +9°C° 0 mm 3 mps 722 mmHg 37%
23:00 +8°C° 0 mm 4 mps 722 mmHg 37%

28 November, Saturday

Time Temperature Precipitation Wind Pressure Humidity
00:00 +9°C° 0 mm 3 mps 722 mmHg 37%
01:00 +9°C° 0 mm 3 mps 722 mmHg 37%
02:00 +9°C° 0 mm 2 mps 722 mmHg 38%
03:00 +8°C° 0 mm 2 mps 723 mmHg 39%
04:00 +8°C° 0 mm 2 mps 723 mmHg 41%
05:00 +7°C° 0 mm 2 mps 723 mmHg 43%
06:00 +7°C° 0.4 mm 2 mps 724 mmHg 50%
07:00 +7°C° 0.4 mm 3 mps 724 mmHg 56%
08:00 +6°C° 0.4 mm 4 mps 725 mmHg 63%
09:00 +6°C° 0.3 mm 4 mps 725 mmHg 64%
10:00 +5°C° 0.3 mm 4 mps 726 mmHg 65%
11:00 +4°C° 0.3 mm 4 mps 727 mmHg 66%
12:00 +4°C° 0.3 mm 4 mps 727 mmHg 71%
13:00 +3°C° 0.3 mm 3 mps 728 mmHg 76%
14:00 +3°C° 0.3 mm 2 mps 728 mmHg 81%
15:00 +3°C° 1.1 mm 2 mps 729 mmHg 86%
16:00 +3°C° 1.1 mm 2 mps 729 mmHg 91%
17:00 +2°C° 1.1 mm 2 mps 730 mmHg 96%
18:00 +2°C° 0.5 mm 2 mps 730 mmHg 96%
19:00 +2°C° 0.5 mm 2 mps 730 mmHg 96%
20:00 +2°C° 0.5 mm 2 mps 731 mmHg 96%
21:00 +2°C° 0.1 mm 2 mps 731 mmHg 96%
22:00 +2°C° 0.1 mm 2 mps 731 mmHg 96%
23:00 +2°C° 0.1 mm 2 mps 731 mmHg 96%
Show more

We Need Your Consent

Meteoprog and our Service Providers may store and access personal data such as cookies, device identifiers or other similar technologies on your device and process such data to personalise content and ads, as well as provide social media features and to analyse the traffic.

  • Store and/or access information on your device

    Cookies, device identifiers or other information can be stored or accessed on your device for the purposes indicated above.

  • Personalised ads and content, ad and content measurement, audience insights, and products development

    Ads and content can be personalised based on a profile. More data can be added to better personalise ads and content. Ad and content performance can be measured. Insights about the audience who saw the ads and content can be derived. Such data can be used to develop or improve user’s experience, systems and software.

By clicking ‘I Agree’ you will allow the use of indicated cookies, device identifiers, web beacons or other similar technologies. Your settings can be changed in the browser on your device.

For certain purposes, legitimate interests may be relied on, rather than consent. You can read more about this in our Privacy and Cookie Policy.